Regional Weather Roundup
Issued by NWS

Home | Current Version | Previous Version | Text Only | Print | Product List | Glossary On
Versions: 1 2 3 4 5 6 7 8 9 10 11 12 13 14 15 16 17 18 19 20 21 22 23 24 25 26 27 28 29 30 31 32 33 34 35 36 37 38 39 40 41 42 43 44 45 46 47 48 49 50
000
ASUS43 KMKX 201210
RWRWI

WISCONSIN REGIONAL WEATHER ROUNDUP
NATIONAL WEATHER SERVICE MILWAUKEE/SULLIVAN WI
600 AM CST MON NOV 20 2017

NOTE: "FAIR" INDICATES FEW OR NO CLOUDS BELOW 12,000 FEET WITH NO
SIGNIFICANT WEATHER AND/OR OBSTRUCTIONS TO VISIBILITY.

WIZ001-002-006>008-014>016-023>028-201300-
NORTHWEST WISCONSIN

CITY           SKY/WX    TMP DP  RH WIND       PRES   REMARKS
SUPERIOR ARPT  CLOUDY    18  16  93 CALM      29.69F
6HR MIN TEMP:  15; 6HR MAX TEMP:  19;

ASHLAND        CLOUDY    20  17  88 CALM      29.71S
6HR MIN TEMP:  16; 6HR MAX TEMP:  20;

HAYWARD        CLOUDY    18  15  88 CALM      29.69F
6HR MIN TEMP:  16; 6HR MAX TEMP:  19;

SIREN          CLOUDY    21  19  93 CALM      29.68F
6HR MIN TEMP:  19; 6HR MAX TEMP:  23;

CUMBERLAND     CLOUDY    21  19  93 CALM      29.69F
RICE LAKE      CLOUDY    23  22  95 SE3       29.71F
6HR MIN TEMP:  20; 6HR MAX TEMP:  24;

CHETEK         CLOUDY    23  22  97 E5        29.71F WCI  17
6HR MIN TEMP:  18; 6HR MAX TEMP:  23;

LADYSMITH      CLOUDY    25  23  93 SE3       29.73F
6HR MIN TEMP:  22; 6HR MAX TEMP:  25;

EAU CLAIRE     CLOUDY    22  20  92 CALM      29.71F
6HR MIN TEMP:  18; 6HR MAX TEMP:  25;

MENOMONIE      CLOUDY    26  24  93 E3        29.72F
6HR MIN TEMP:  24; 6HR MAX TEMP:  29;

NEW RICHMOND   CLOUDY    29  24  82 S6        29.69F WCI  23
6HR MIN TEMP:  28; 6HR MAX TEMP:  31;

OSCEOLA        CLOUDY    32  27  81 S5        29.71F WCI  27
6HR MIN TEMP:  23; 6HR MAX TEMP:  32;

$$

WIZ003>005-009-010-017-018-201300-
NORTH CENTRAL WISCONSIN

CITY           SKY/WX    TMP DP  RH WIND       PRES   REMARKS
MANITOWISH WTR CLOUDY    16  16 100 CALM      29.70S
6HR MIN TEMP:  10; 6HR MAX TEMP:  16;

ARBOR VITAE    CLOUDY    19  17  91 CALM      29.71F
6HR MIN TEMP:  17; 6HR MAX TEMP:  19;

WOODRUFF       CLOUDY    19  17  91 CALM      29.71F
6HR MIN TEMP:  17; 6HR MAX TEMP:  19;

RHINELANDER    CLOUDY     1  32 100 SW5       29.72F WCI  -9
EAGLE RIVER    CLOUDY    15  15  98 CALM      29.71F
6HR MIN TEMP:  11; 6HR MAX TEMP:  15;

LAND O LAKES   CLOUDY    11   9  91 CALM      29.72F
6HR MIN TEMP:  10; 6HR MAX TEMP:  14;

PHILLIPS       CLOUDY    25  24  95 S5        29.70F WCI  19
6HR MIN TEMP:  18; 6HR MAX TEMP:  25;

TOMAHAWK       CLOUDY    17  15  93 CALM      29.73F
6HR MIN TEMP:  14; 6HR MAX TEMP:  17;

MEDFORD        CLOUDY    25  22  90 S6        29.72F WCI  18
6HR MIN TEMP:  23; 6HR MAX TEMP:  27;

MERRILL        CLOUDY    17  15  95 CALM      29.75F
6HR MIN TEMP:  15; 6HR MAX TEMP:  21;

$$

WIZ029-030-035-036-043>047-201300-
CENTRAL WISCONSIN

CITY           SKY/WX    TMP DP  RH WIND       PRES   REMARKS
WAUSAU         CLOUDY    24  21  88 E3        29.75F
6HR MIN TEMP:  22; 6HR MAX TEMP:  27;

MOSINEE        MOCLDY    23  23 100 S5        29.77S WCI  17
MARSHFIELD     CLOUDY    24  20  84 S8        29.74F WCI  15
6HR MIN TEMP:  22; 6HR MAX TEMP:  25;

STEVENS POINT  CLOUDY    25  23  93 S5        29.78F WCI  19
6HR MIN TEMP:  19; 6HR MAX TEMP:  25;

WAUPACA        CLOUDY    25  22  88 CALM      29.81F
6HR MIN TEMP:  23; 6HR MAX TEMP:  27;

WAUTOMA        CLOUDY    17  14  88 CALM      29.82F
6HR MIN TEMP:  16; 6HR MAX TEMP:  21;

WISC RAPIDS    CLOUDY    27  23  85 S7        29.78F WCI  19
6HR MIN TEMP:  21; 6HR MAX TEMP:  27;

CAMP DOUGLAS   CLOUDY   N/A N/A N/A S6        29.80F
$$

WIZ011>013-019>022-031-037>040-048>050-201300-
NORTHEAST WISCONSIN

CITY           SKY/WX    TMP DP  RH WIND       PRES   REMARKS
ANTIGO         CLOUDY    23  21  92 CALM      29.75F
6HR MIN TEMP:  19; 6HR MAX TEMP:  23;

SHAWANO        CLOUDY    26  22  85 CALM      29.80S
6HR MIN TEMP:  24; 6HR MAX TEMP:  28;

OCONTO         CLOUDY    19  17  91 CALM      29.82S
6HR MIN TEMP:  18; 6HR MAX TEMP:  25;

STURGEON BAY   CLEAR     27  22  81 SW3       29.83S
6HR MIN TEMP:  26; 6HR MAX TEMP:  29;

GREEN BAY      CLOUDY    29  26  89 S5        29.81F WCI  24
6HR MIN TEMP:  28; 6HR MAX TEMP:  30;

MANITOWOC      CLEAR     32  24  72 SW10      29.83F WCI  24
6HR MIN TEMP:  28; 6HR MAX TEMP:  33;

APPLETON       PTCLDY    27  21  80 S8        29.80F WCI  18
CLINTONVILLE   CLOUDY    25  19  80 S5        29.80F WCI  19
OSHKOSH        CLOUDY    29  23  78 S12       29.82F WCI  19
6HR MIN TEMP:  28; 6HR MAX TEMP:  30;

$$

WIZ032>034-041-042-053>061-201300-
SOUTHWEST WISCONSIN

CITY           SKY/WX    TMP DP  RH WIND       PRES   REMARKS
LA CROSSE      CLOUDY    34  27  75 S9        29.78F WCI  27
6HR MIN TEMP:  33; 6HR MAX TEMP:  35;

SPARTA         CLOUDY    22  21  94 CALM      29.79F
6HR MIN TEMP:  20; 6HR MAX TEMP:  31;

VIROQUA        CLOUDY    30  27  89 S6        29.79F WCI  24
6HR MIN TEMP:  30; 6HR MAX TEMP:  32;

BOSCOBEL       CLOUDY    24  21  88 CALM      29.85F
6HR MIN TEMP:  22; 6HR MAX TEMP:  31;

PRAIRIE DU CHI CLOUDY    33  25  72 SW5       29.84S WCI  29
6HR MIN TEMP:  31; 6HR MAX TEMP:  37;

PLATTEVILLE    CLEAR     30  28  94 S14       29.85F WCI  19
6HR MIN TEMP:  28; 6HR MAX TEMP:  31;

$$

WIZ056-057-062-063-064-067-068-201300-
SOUTH CENTRAL WISCONSIN

CITY           SKY/WX    TMP DP  RH WIND       PRES   REMARKS
REEDSBURG      CLOUDY    30  25  79 S6        29.83S WCI  24
6HR MIN TEMP:  29; 6HR MAX TEMP:  32;

BARABOO/DELLS  CLOUDY    32  24  74 SW3       29.82F
6HR MIN TEMP:  32; 6HR MAX TEMP:  33;

LONE ROCK      PTCLDY    26  23  88 CALM      29.86F
6HR MIN TEMP:  23; 6HR MAX TEMP:  33;

MINERAL POINT  CLEAR     32  30  93 S8        29.84F WCI  25
MADISON        PTCLDY    31  25  78 S8        29.86F WCI  23
6HR MIN TEMP:  31; 6HR MAX TEMP:  34;

MIDDLETON      CLEAR     32  26  80 SW5       29.86S WCI  27
6HR MIN TEMP:  32; 6HR MAX TEMP:  34;

WATERTOWN      CLEAR     28  26  91 S6        29.87S WCI  21
6HR MIN TEMP:  26; 6HR MAX TEMP:  28;

MONROE         CLEAR     28  27  93 S15       29.85F WCI  17
JANESVILLE     CLEAR     32  27  80 S12       29.88F WCI  23
$$

WIZ051-052-058>065-066-070>072-201300-
SOUTHEAST WISCONSIN

CITY           SKY/WX    TMP DP  RH WIND       PRES   REMARKS
MILWAUKEE      PTCLDY    33  24  69 SW14      29.89F WCI  23
6HR MIN TEMP:  30; 6HR MAX TEMP:  33;

WAUKESHA       CLEAR     28  21  74 SW7       29.90S WCI  21
MILWAUKEE/TIMM CLEAR     32  23  69 SW10G16   29.89F WCI  24
RACINE         CLEAR     33  24  69 SW9       29.91F WCI  25
6HR MIN TEMP:  31; 6HR MAX TEMP:  33;

BURLINGTON     CLEAR     33  29  88 S12       29.89F WCI  24
6HR MIN TEMP:  30; 6HR MAX TEMP:  33;

KENOSHA        CLEAR     32  23  69 SW12      29.91F WCI  23
6HR MIN TEMP:  31; 6HR MAX TEMP:  32;

FOND DU LAC    CLEAR     31  23  72 S14       29.83F WCI  21
6HR MIN TEMP:  29; 6HR MAX TEMP:  31;

SHEBOYGAN      CLEAR     31  25  78 SW9       29.85F WCI  23
6HR MIN TEMP:  29; 6HR MAX TEMP:  32;

WEST BEND      CLEAR     32  25  74 SW9       29.86F WCI  24
JUNEAU         CLEAR     27  23  85 S8        29.87F WCI  19
6HR MIN TEMP:  26; 6HR MAX TEMP:  28;

$$

LSZ147-162-201300-
LAKE SUPERIOR

STATION/POSITION TIME  TEMP    WIND        PRES    WAVE
                       AIR SEA DIR/SP/G            HT/PER
                 (UTC) (F)     (DEG/KT/KT) (MB)    (FT/S)
DEVILS ISLAND    1200   31     160/  4/  6 1006.6F
SAXON HARBOR     1140   26     190/  5/  7 1005.4F
$$

LMZ867-665-643>646-201300-
LAKE MICHIGAN

STATION/POSITION TIME  TEMP    WIND        PRES    WAVE
                       AIR SEA DIR/SP/G            HT/PER
                 (UTC) (F)     (DEG/KT/KT) (MB)    (FT/S)
N MID LAKE BUOY  1150   36 48  240/  6/  8 1011.2F   3/ 6
NORTHPORT PIER   1140   29      CAL



USA.gov is the U.S. government's official web portal to all federal, state and local government web resources and services.